Tracking 29892 objects as of 21-Nov-2024
HD Live streaming from Space Station
objects crossing your sky now

STARLINK-31611

Track STARLINK-31611 now!
10-day predictions
STARLINK-31611 is classified as:


NORAD ID: 59325
Int'l Code: 2024-057F
Perigee: 449.7 km
Apogee: 452.7 km
Inclination: 43.0 °
Period: 93.5 minutes
Semi major axis: 6822 km
RCS: Unknown
Launch date: March 25, 2024
Source: United States (US)
Launch site: AIR FORCE EASTERN TEST RANGE (AFETR)
Your satellite tracking list
Your tracking list is empty




NASA's NSSDC Master Catalog

Two Line Element Set (TLE):
1 59325U 24057F   24325.49423000 -.00001778  00000-0 -35298-4 0  9996
2 59325  43.0053   8.7465 0002167 268.4686  91.5922 15.40700770 38221
Source of the keplerian elements: AFSPC